EW3286 Weather Reports


Display with metric or nautical units.
time (UTC)temp
F
wind
direction
speed
MPH
gust
MPH
rain 1hr
in
rain 24hr
in
rain mn
in
humidity
%
barometer
mb
20260901123011 64 140 0.0 0.0 0.00 0.00 0.00 92 1012.7
20260901121509 63 140 0.0 0.0 0.00 0.00 0.00 92 1012.5
20260901120006 64 140 0.0 0.0 0.00 0.00 0.00 92 1012.4
20260901114502 64 140 0.0 0.0 0.00 0.00 0.00 92 1012.2
20260901113002 64 140 0.0 0.0 0.00 0.00 0.00 92 1012.4
20260901111502 64 140 0.0 0.0 0.00 0.00 0.00 92 1012.3
20260901110100 64 140 0.0 0.0 0.00 0.00 0.00 92 1012.3
20260901110003 64 140 0.0 0.0 0.00 0.00 0.00 92 1012.3
20260901104607 63 140 0.0 0.0 0.00 0.00 0.00 92 1012.1
20260901103059 63 140 0.0 0.0 0.00 0.00 0.00 92 1012.2
20260901101611 63 140 0.0 0.0 0.00 0.00 0.00 92 1012.1
20260901100100 63 140 0.0 0.0 0.00 0.00 0.00 91 1012.2
20260901094657 63 140 0.0 0.0 0.00 0.00 0.00 90 1012.0
20260901093055 63 140 0.0 0.0 0.00 0.00 0.00 90 1012.0
20260901091603 64 140 0.0 0.0 0.00 0.00 0.00 90 1011.9
20260901090053 64 140 0.0 0.0 0.00 0.00 0.00 90 1011.8
20260901084553 64 140 0.0 0.0 0.00 0.00 0.00 90 1011.8
20260901083051 64 140 0.0 0.0 0.00 0.00 0.00 90 1011.6
20260901081552 64 66 0.0 0.0 0.00 0.00 0.00 89 1011.7
20260901080056 64 66 0.0 0.0 0.00 0.00 0.00 90 1011.9
20260901074550 65 66 0.0 0.0 0.00 0.00 0.00 89 1011.9
20260901073044 65 66 0.0 0.0 0.00 0.00 0.00 88 1011.9
20260901071542 65 66 0.0 0.0 0.00 0.00 0.00 88 1012.1
20260901070040 65 66 0.0 0.0 0.00 0.00 0.00 87 1012.2
20260901064538 66 66 0.0 0.0 0.00 0.00 0.00 85 1012.1
20260901063038 66 66 0.0 0.0 0.00 0.00 0.00 85 1012.2
20260901061532 67 66 0.0 0.0 0.00 0.00 0.00 84 1012.2
20260901060030 68 66 0.0 0.0 0.00 0.00 0.00 84 1012.3
20260901054527 68 66 0.0 0.0 0.00 0.00 0.00 82 1012.1
20260901053024 69 66 0.0 0.0 0.00 0.00 0.00 81 1012.1
20260901051530 69 66 0.0 0.0 0.00 0.00 0.00 80 1012.2
20260901050019 70 66 0.0 0.0 0.00 0.00 0.00 80 1012.1
20260901044515 70 66 0.0 0.0 0.00 0.00 0.00 79 1012.0
20260901043014 71 51 0.0 0.0 0.00 0.00 0.00 78 1011.8
20260901041527 72 32 0.0 0.0 0.00 0.00 0.00 76 1011.7
20260901040019 72 331 0.0 0.0 0.00 0.00 0.00 80 1011.7
20260901034512 71 331 0.0 0.0 0.00 0.00 0.00 84 1011.7
20260901033013 71 331 0.0 0.0 0.00 0.00 0.00 85 1011.7
20260901031511 70 331 0.0 0.0 0.00 0.00 0.00 83 1011.5
20260901030010 70 346 0.0 0.0 0.00 0.00 0.00 79 1011.4
20260901024509 71 346 0.0 0.0 0.00 0.00 0.00 75 1011.3
20260901023010 73 346 0.0 0.0 0.00 0.00 0.00 74 1011.3
20260901021507 74 346 0.0 0.0 0.00 0.00 0.00 72 1011.2
20260901020005 75 346 0.0 0.0 0.00 0.00 0.00 68 1011.0
20260901014509 76 346 0.0 0.0 0.00 0.00 0.00 66 1010.6
20260901013003 78 346 0.0 0.0 0.00 0.00 0.00 65 1010.5
20260901011502 80 346 0.0 0.0 0.00 0.00 0.00 63 1010.4
20260901010002 83 346 0.0 0.0 0.00 0.00 0.00 59 1010.4
20260901004502 85 346 0.0 0.0 0.00 0.00 0.00 58 1010.3
20260901003001 86 346 0.0 0.0 0.00 0.00 0.00 52 1010.2
20260901001501 87 346 0.0 0.0 0.00 0.00 0.00 48 1010.1
20260901000110 88 346 0.0 0.0 0.00 0.00 0.00 52 1010.3
20260831234621 87 346 0.0 0.0 0.00 0.00 0.00 44 1010.3
20260831233118 87 346 0.0 0.0 0.00 0.00 0.00 40 1010.5
20260831231558 87 346 0.0 0.0 0.00 0.00 0.00 38 1010.3
20260831230058 87 346 0.0 0.0 0.00 0.00 0.00 36 1010.3
20260831224557 87 346 0.0 0.0 0.00 0.00 0.00 36 1010.3
20260831223057 88 302 0.0 0.0 0.00 0.00 0.00 35 1010.4
20260831221555 88 316 0.0 0.0 0.00 0.00 0.00 35 1010.3
20260831220056 87 335 0.0 0.0 0.00 0.00 0.00 37 1010.2
20260831214604 88 355 0.0 0.0 0.00 0.00 0.00 39 1010.4
20260831213050 88 346 0.0 0.0 0.00 0.00 0.00 37 1010.4
20260831211547 88 348 0.0 0.0 0.00 0.00 0.00 41 1010.3
20260831210046 88 343 0.0 0.0 0.00 0.00 0.00 41 1010.4
20260831204540 88 308 0.0 0.0 0.00 0.00 0.00 43 1010.3
20260831203036 87 9 0.0 0.0 0.00 0.00 0.00 43 1010.3
20260831201538 86 317 0.0 0.0 0.00 0.00 0.00 44 1010.2
20260831200026 86 313 0.0 0.0 0.00 0.00 0.00 45 1010.1
20260831194522 85 303 0.0 0.0 0.00 0.00 0.00 46 1010.1
20260831193020 85 297 0.0 0.0 0.00 0.00 0.00 48 1010.1
20260831191514 85 279 0.0 0.0 0.00 0.00 0.00 49 1010.0
20260831190014 85 253 0.0 0.0 0.00 0.00 0.00 50 1010.0
20260831184511 84 292 0.0 0.0 0.00 0.00 0.00 51 1009.9
20260831183007 83 246 0.0 0.0 0.00 0.00 0.00 55 1010.1
20260831181504 83 276 0.0 0.0 0.00 0.00 0.00 58 1010.2
20260831180004 82 258 0.0 0.0 0.00 0.00 0.00 59 1010.0
20260831174603 82 229 0.0 0.0 0.00 0.00 0.00 65 1010.1
20260831173056 81 256 0.0 0.0 0.00 0.00 0.00 67 1010.2
20260831171551 80 199 0.0 0.0 0.00 0.00 0.00 70 1010.0
20260831170053 78 268 0.0 0.0 0.00 0.00 0.00 73 1010.0
20260831164543 78 249 0.0 0.0 0.00 0.00 0.00 75 1010.1
20260831163046 77 360 0.0 0.0 0.00 0.00 0.00 76 1010.2
20260831161536 76 260 0.0 0.0 0.00 0.00 0.00 79 1010.3
20260831160045 76 274 0.0 0.0 0.00 0.00 0.00 79 1010.4
20260831154532 75 360 0.0 0.0 0.00 0.00 0.00 81 1010.5
20260831153029 75 236 0.0 0.0 0.00 0.00 0.00 81 1010.3
20260831151532 75 256 0.0 0.0 0.00 0.00 0.00 83 1009.9
20260831150024 74 250 0.0 0.0 0.00 0.00 0.00 86 1009.9
20260831144520 73 238 0.0 0.0 0.00 0.00 0.00 87 1009.6
20260831143017 73 279 0.0 0.0 0.00 0.00 0.00 91 1009.3
20260831141514 72 221 0.0 0.0 0.00 0.00 0.00 93 1009.3
20260831140011 71 259 0.0 0.0 0.00 0.00 0.00 94 1009.0
20260831134518 70 360 0.0 0.0 0.00 0.00 0.00 95 1009.0
20260831133006 70 240 0.0 0.0 0.00 0.00 0.00 95 1008.7
20260831131503 70 240 0.0 0.0 0.00 0.00 0.00 95 1008.5
20260831130101 69 240 0.0 0.0 0.00 0.00 0.00 94 1008.4
20260831124658 69 241 0.0 0.0 0.00 0.00 0.00 94 1008.1